Date String (YYYY-MM-DD hh:mm:ss) UTC,Instrument flags,Ambient pressure (hPa),Sample flow (lpm),Bypass flow (lpm),Sample temperature (°C),Ambient temperature (°C),ASC tube jacket temperature (°C),LED temperature (°C),Box temperature (°C),Sample RH (%),Mass concentration (μg/m³),Mass concentration (μg/m³)
DateTimeUTC,F1_M11,P_M11,Q1_M11,Q2_M11,T1_M11,T2_M11,T3_M11,T4_M11,T5_M11,U1_M11,X0_M11,X2_M11
2021-08-17 03:00:00,,0826.2,5.01,0.00,29.3,28.5,00.0,38.2,31.3,18.2,0037.57,0025.90
2021-08-17 03:01:00,,0826.2,5.00,0.00,29.4,28.6,00.0,38.2,31.3,18.1,0037.17,0025.78
2021-08-17 03:02:00,,0826.2,5.00,0.00,29.3,27.3,00.0,38.3,30.9,18.1,0036.09,0025.73
2021-08-17 03:03:00,,0826.2,5.00,0.00,29.2,25.6,00.0,38.2,30.4,18.2,0036.08,0025.70
2021-08-17 03:04:00,,0826.2,4.99,0.00,29.0,25.4,00.0,38.2,30.3,18.4,0037.24,0025.65
2021-08-17 03:05:00,,0826.2,5.01,0.00,29.0,25.8,00.0,38.2,30.4,18.5,0036.88,0025.61
2021-08-17 03:06:00,,0826.2,5.01,0.00,28.9,26.3,00.0,38.1,30.6,18.4,0036.28,0025.60
2021-08-17 03:07:00,,0826.2,5.00,0.00,29.0,26.7,00.0,38.1,30.7,18.5,0036.36,0025.54
2021-08-17 03:08:00,,0826.2,5.01,0.00,29.0,27.1,00.0,38.1,30.8,18.5,0036.23,0025.50
2021-08-17 03:09:00,,0826.2,4.99,0.00,29.0,27.5,00.0,38.1,30.9,18.4,0036.19,0025.48
2021-08-17 03:10:00,,0826.2,5.00,0.00,29.1,27.7,00.0,38.1,30.9,18.4,0035.61,0025.51
2021-08-17 03:11:00,,0826.2,5.00,0.00,29.1,27.9,00.0,38.1,31.0,18.3,0035.08,0025.51
2021-08-17 03:12:00,,0826.2,5.01,0.00,29.2,28.1,00.0,38.2,31.1,18.2,0036.56,0025.62
2021-08-17 03:13:00,,0826.1,4.99,0.00,29.2,28.3,00.0,38.2,31.1,18.1,0037.34,0025.60
2021-08-17 03:14:00,,0826.2,5.00,0.00,29.3,28.4,00.0,38.2,31.2,18.0,0036.84,0025.54
2021-08-17 03:15:00,,0826.2,4.99,0.00,29.3,28.5,00.0,38.2,31.3,18.0,0035.49,0025.54
2021-08-17 03:16:00,,0826.1,5.02,0.00,29.4,28.6,00.0,38.3,31.3,17.9,0036.10,0025.57
2021-08-17 03:17:00,,0826.2,4.99,0.00,29.4,28.2,00.0,38.3,31.2,17.8,0036.34,0025.59
2021-08-17 03:18:00,,0826.1,5.01,0.00,29.3,26.2,00.0,38.3,30.6,18.0,0037.75,0025.64
2021-08-17 03:19:00,,0826.2,4.98,0.00,29.1,25.3,00.0,38.2,30.3,18.1,0038.64,0025.66
2021-08-17 03:20:00,,0826.2,5.00,0.00,29.0,25.6,00.0,38.2,30.4,18.1,0039.06,0025.68
2021-08-17 03:21:00,,0826.2,5.02,0.00,29.0,26.1,00.0,38.2,30.6,18.2,0039.06,0025.73
2021-08-17 03:22:00,,0826.2,5.00,0.00,29.0,26.5,00.0,38.2,30.7,18.2,0038.97,0025.73
2021-08-17 03:23:00,,0826.2,5.01,0.00,29.0,27.0,00.0,38.1,30.7,18.2,0037.97,0025.69
2021-08-17 03:24:00,,0826.2,5.00,0.00,29.0,27.3,00.0,38.1,30.8,18.2,0037.31,0025.71
2021-08-17 03:25:00,,0826.2,4.99,0.00,29.1,27.6,00.0,38.1,30.9,18.1,0037.84,0025.75
2021-08-17 03:26:00,,0826.2,4.99,0.00,29.1,27.9,00.0,38.2,31.0,18.0,0037.94,0025.75
2021-08-17 03:27:00,,0826.2,5.00,0.00,29.2,28.0,00.0,38.2,31.1,18.0,0037.39,0025.74
2021-08-17 03:28:00,,0826.2,5.00,0.00,29.2,28.2,00.0,38.2,31.1,17.9,0037.49,0025.75
2021-08-17 03:29:00,,0826.2,4.99,0.00,29.3,28.4,00.0,38.2,31.2,17.9,0036.26,0025.69
2021-08-17 03:30:00,,0826.2,5.01,0.00,29.3,28.5,00.0,38.3,31.2,17.9,0036.11,0025.67
2021-08-17 03:31:00,,0826.2,5.00,0.00,29.4,28.6,00.0,38.3,31.3,17.7,0035.82,0025.66
2021-08-17 03:32:00,,0826.2,5.00,0.00,29.4,28.6,00.0,38.3,31.3,17.7,0036.22,0025.64
2021-08-17 03:33:00,,0826.2,5.00,0.00,29.4,27.1,00.0,38.3,30.9,17.7,0036.47,0025.67
2021-08-17 03:34:00,,0826.2,4.99,0.00,29.2,25.4,00.0,38.3,30.4,17.9,0037.52,0025.67
2021-08-17 03:35:00,,0826.2,5.00,0.00,29.1,25.4,00.0,38.3,30.4,18.0,0037.06,0025.62
2021-08-17 03:36:00,,0826.2,5.01,0.00,29.0,25.8,00.0,38.2,30.5,18.2,0036.50,0025.59
2021-08-17 03:37:00,,0826.2,4.99,0.00,29.0,26.3,00.0,38.2,30.6,18.2,0036.81,0025.62
2021-08-17 03:38:00,,0826.2,5.00,0.00,29.0,26.7,00.0,38.2,30.7,18.2,0037.36,0025.60
2021-08-17 03:39:00,,0826.2,5.00,0.00,29.0,27.1,00.0,38.1,30.8,18.1,0037.18,0025.62
2021-08-17 03:40:00,,0826.2,5.00,0.00,29.0,27.4,00.0,38.1,30.8,18.1,0036.87,0025.68
2021-08-17 03:41:00,,0826.2,5.00,0.00,29.1,27.7,00.0,38.2,30.9,18.0,0036.24,0025.67
2021-08-17 03:42:00,,0826.2,5.00,0.00,29.1,27.9,00.0,38.2,31.0,18.0,0036.41,0025.69
2021-08-17 03:43:00,,0826.2,5.00,0.00,29.2,28.1,00.0,38.2,31.1,18.0,0036.52,0025.64
2021-08-17 03:44:00,,0826.3,5.00,0.00,29.2,28.2,00.0,38.2,31.1,17.9,0036.25,0025.62
2021-08-17 03:45:00,,0826.2,5.01,0.00,29.3,28.4,00.0,38.2,31.2,17.9,0035.23,0025.62
2021-08-17 03:46:00,,0826.2,5.00,0.00,29.3,28.5,00.0,38.3,31.2,17.8,0035.67,0025.66
2021-08-17 03:47:00,,0826.2,4.99,0.00,29.4,28.6,00.0,38.3,31.3,17.7,0036.94,0025.61
2021-08-17 03:48:00,,0826.3,5.01,0.00,29.4,28.7,00.0,38.3,31.4,17.7,0037.31,0025.54
2021-08-17 03:49:00,,0826.2,5.00,0.00,29.5,28.7,00.0,38.4,31.4,17.7,0038.24,0025.54
2021-08-17 03:50:00,,0826.2,5.00,0.00,29.5,27.4,00.0,38.4,31.0,17.7,0038.00,0025.53
2021-08-17 03:51:00,,0826.2,4.99,0.00,29.3,25.5,00.0,38.3,30.5,17.9,0037.95,0025.49
2021-08-17 03:52:00,,0826.1,4.99,0.00,29.1,25.4,00.0,38.3,30.4,18.0,0037.99,0025.46
2021-08-17 03:53:00,,0826.2,5.01,0.00,29.1,25.9,00.0,38.3,30.5,18.1,0037.85,0025.44
2021-08-17 03:54:00,,0826.2,5.00,0.00,29.0,26.3,00.0,38.2,30.6,18.1,0038.42,0025.47
2021-08-17 03:55:00,,0826.2,5.00,0.00,29.0,26.8,00.0,38.2,30.7,18.1,0038.57,0025.48
2021-08-17 03:56:00,,0826.2,4.99,0.00,29.1,27.1,00.0,38.2,30.8,18.2,0038.83,0025.49
2021-08-17 03:57:00,,0826.4,5.00,0.00,29.1,27.5,00.0,38.2,30.9,18.1,0038.43,0025.48
2021-08-17 03:58:00,,0826.2,4.98,0.00,29.1,27.7,00.0,38.2,31.0,18.0,0037.27,0025.52
2021-08-17 03:59:00,,0826.2,5.00,0.00,29.2,27.9,00.0,38.2,31.0,18.0,0036.62,0025.59
